Location: The Saddle
(36.8333°N, 80.3417°W)
Time: 05:15:47
(UTC-05:00)

Transit 4A - All Passes

Search period start: 19 January 2022 00:00
Search period end: 29 January 2022 00:00
Orbit: 864 x 981 km, 66.8° (Epoch: 18 January)

Date Brightness Start Highest point End Pass type
(mag) Time Alt. Az. Time Alt. Az. Time Alt. Az.
19 Jan - 07:53:52 10° S 07:59:09 35° ESE 08:04:37 10° NE daylight
19 Jan - 09:39:59 10° WSW 09:45:26 35° NW 09:51:03 10° NNE daylight
19 Jan - 16:58:33 10° N 17:04:01 29° NE 17:09:27 10° ESE daylight
19 Jan - 18:44:28 10° NW 18:50:37 50° WSW 18:56:43 10° S visible
20 Jan - 08:02:31 10° S 08:08:17 54° ESE 08:14:14 10° NE daylight
20 Jan - 09:50:08 10° WSW 09:54:58 25° NW 09:59:57 10° N daylight
20 Jan - 17:07:31 10° NNW 17:13:32 41° NE 17:19:30 10° SE daylight
20 Jan - 18:54:08 10° NW 18:59:44 33° WSW 19:05:19 10° S visible
21 Jan - 08:11:32 10° SSW 08:17:28 82° ESE 08:23:40 10° NNE daylight
21 Jan - 10:00:40 10° W 10:04:37 18° NW 10:08:39 10° N daylight
21 Jan - 15:33:05 10° NNE 15:35:12 12° NE 15:37:20 10° ENE daylight
21 Jan - 17:16:37 10° NNW 17:22:57 59° ENE 17:29:15 10° SE daylight
21 Jan - 19:04:09 10° WNW 19:08:48 21° WSW 19:13:25 10° SSW visible
22 Jan - 06:37:33 10° SE 06:41:08 17° ESE 06:44:47 10° ENE visible
22 Jan - 08:20:50 10° SW 08:26:46 67° WNW 08:32:56 10° NNE daylight
22 Jan - 10:11:55 10° WNW 10:14:22 12° NW 10:16:51 10° NNW daylight
22 Jan - 15:41:04 10° N 15:44:59 16° NE 15:48:53 10° E daylight
22 Jan - 17:25:50 10° NNW 17:32:17 86° ENE 17:38:41 10° SSE daylight
22 Jan - 19:14:55 10° WNW 19:17:46 13° W 19:20:38 10° SW visible
23 Jan - 06:45:18 10° SSE 06:50:08 26° ESE 06:55:06 10° NE visible
23 Jan - 08:30:27 10° SW 08:36:09 45° WNW 08:42:04 10° NNE daylight
23 Jan - 15:49:42 10° N 15:54:40 23° NE 15:59:37 10° E daylight
23 Jan - 17:35:11 10° NNW 17:41:32 65° WSW 17:47:49 10° SSE daylight
24 Jan - 06:53:42 10° S 06:59:12 41° ESE 07:04:54 10° NE visible
24 Jan - 08:40:21 10° WSW 08:45:38 31° NW 08:51:05 10° N daylight
24 Jan - 15:58:34 10° N 16:04:15 32° NE 16:09:54 10° ESE daylight
24 Jan - 17:44:43 10° NW 17:50:42 43° WSW 17:56:39 10° S daylight
25 Jan - 07:02:30 10° SSW 07:08:21 63° ESE 07:14:27 10° NE visible
25 Jan - 08:50:37 10° W 08:55:13 22° NW 08:59:56 10° N daylight
25 Jan - 16:07:34 10° NNW 16:13:43 46° ENE 16:19:50 10° SE daylight
25 Jan - 17:54:29 10° NW 17:59:48 28° WSW 18:05:06 10° SSW visible
26 Jan - 05:30:07 10° ESE 05:32:12 12° E 05:34:18 10° E visible
26 Jan - 07:11:36 10° SSW 07:17:36 87° WNW 07:23:49 10° NNE daylight
26 Jan - 09:01:21 10° W 09:04:54 16° NW 09:08:30 10° N daylight
26 Jan - 14:32:37 10° NNE 14:35:32 13° NE 14:38:26 10° ENE daylight
26 Jan - 16:16:43 10° NNW 16:23:06 68° ENE 16:29:28 10° SE daylight
26 Jan - 18:04:41 10° WNW 18:08:50 18° WSW 18:12:59 10° SW visible
27 Jan - 05:37:00 10° SSE 05:41:09 20° ESE 05:45:23 10° ENE visible
27 Jan - 07:21:01 10° SW 07:26:55 58° WNW 07:33:02 10° NNE daylight
27 Jan - 09:13:07 10° NW 09:14:42 11° NW 09:16:17 10° NNW daylight
27 Jan - 14:40:56 10° N 14:45:16 19° NE 14:49:36 10° E daylight
27 Jan - 16:25:59 10° NNW 16:32:25 83° WSW 16:38:48 10° SSE daylight
27 Jan - 18:16:13 10° W 18:17:48 11° W 18:19:22 10° WSW visible
28 Jan - 05:45:02 10° SSE 05:50:10 31° ESE 05:55:27 10° NE visible
28 Jan - 07:30:44 10° SW 07:36:20 39° NW 07:42:08 10° NNE daylight
28 Jan - 14:49:39 10° N 14:54:55 26° NE 15:00:09 10° ESE daylight
28 Jan - 16:35:23 10° NW 16:41:38 56° WSW 16:47:49 10° S daylight
